Time,TemperatureF,DewpointF,PressureIn,WindDirection,WindDirectionDegrees,WindSpeedMPH,WindSpeedGustMPH,Humidity,HourlyPrecipIn,Conditions,Clouds,dailyrainin,SoftwareType,DateUTC
2013-05-18 00:01:00,48.1,39.5,30.23,NW,309,3.0,4.0,72,0.00,,,0.00,VWS V14.01,2013-05-18 04:01:00,
2013-05-18 00:06:00,48.0,39.4,30.23,NW,309,2.0,2.0,72,0.00,,,0.00,VWS V14.01,2013-05-18 04:06:00,
2013-05-18 00:11:00,48.0,40.1,30.23,NW,308,2.0,2.0,74,0.00,,,0.00,VWS V14.01,2013-05-18 04:11:00,
2013-05-18 00:16:00,47.8,39.9,30.23,NW,308,1.0,2.0,74,0.00,,,0.00,VWS V14.01,2013-05-18 04:16:00,
2013-05-18 00:21:00,47.5,40.7,30.23,NW,308,3.0,3.0,77,0.00,,,0.00,VWS V14.01,2013-05-18 04:21:00,
2013-05-18 00:26:00,47.4,41.2,30.23,NW,306,2.0,3.0,79,0.00,,,0.00,VWS V14.01,2013-05-18 04:26:00,
2013-05-18 00:31:00,47.6,41.8,30.23,WNW,302,1.0,4.0,80,0.00,,,0.00,VWS V14.01,2013-05-18 04:31:00,
2013-05-18 00:36:00,47.5,42.0,30.23,WNW,284,3.0,4.0,81,0.00,,,0.00,VWS V14.01,2013-05-18 04:36:00,
2013-05-18 00:41:00,47.4,42.5,30.23,West,264,2.0,5.0,83,0.00,,,0.00,VWS V14.01,2013-05-18 04:41:00,
2013-05-18 00:46:00,47.8,42.9,30.23,West,263,1.0,5.0,83,0.00,,,0.00,VWS V14.01,2013-05-18 04:46:00,
2013-05-18 00:51:00,48.3,43.1,30.23,WSW,258,2.0,6.0,82,0.00,,,0.00,VWS V14.01,2013-05-18 04:51:00,
2013-05-18 00:56:00,48.2,43.0,30.24,WSW,255,2.0,6.0,82,0.00,,,0.00,VWS V14.01,2013-05-18 04:56:00,
2013-05-18 01:01:00,48.0,43.1,30.24,WSW,253,3.0,6.0,83,0.00,,,0.00,VWS V14.01,2013-05-18 05:01:00,
2013-05-18 01:06:00,48.1,43.2,30.24,WNW,297,1.0,2.0,83,0.00,,,0.00,VWS V14.01,2013-05-18 05:06:00,
2013-05-18 01:11:00,47.7,43.1,30.24,WNW,297,2.0,2.0,84,0.00,,,0.00,VWS V14.01,2013-05-18 05:11:00,
2013-05-18 01:16:00,47.7,43.1,30.24,WNW,297,1.0,4.0,84,0.00,,,0.00,VWS V14.01,2013-05-18 05:16:00,
2013-05-18 01:21:00,47.6,43.3,30.24,WNW,297,0.0,4.0,85,0.00,,,0.00,VWS V14.01,2013-05-18 05:21:00,
2013-05-18 01:26:00,47.4,43.4,30.23,WNW,286,0.0,4.0,86,0.00,,,0.00,VWS V14.01,2013-05-18 05:26:00,
2013-05-18 01:31:00,47.3,43.3,30.23,WNW,286,1.0,4.0,86,0.00,,,0.00,VWS V14.01,2013-05-18 05:31:00,
2013-05-18 01:36:00,47.4,43.4,30.23,WNW,286,0.0,2.0,86,0.00,,,0.00,VWS V14.01,2013-05-18 05:36:00,
2013-05-18 01:41:00,47.5,43.2,30.23,WNW,284,1.0,3.0,85,0.00,,,0.00,VWS V14.01,2013-05-18 05:41:00,
2013-05-18 01:46:00,47.3,43.0,30.23,WNW,284,1.0,3.0,85,0.00,,,0.00,VWS V14.01,2013-05-18 05:46:00,
2013-05-18 01:51:00,47.1,43.1,30.23,WNW,284,1.0,3.0,86,0.00,,,0.00,VWS V14.01,2013-05-18 05:51:00,
2013-05-18 01:56:00,46.8,43.1,30.24,WNW,284,1.0,3.0,87,0.00,,,0.00,VWS V14.01,2013-05-18 05:56:00,
2013-05-18 02:01:00,46.5,42.8,30.23,WNW,285,0.0,3.0,87,0.00,,,0.00,VWS V14.01,2013-05-18 06:01:00,
2013-05-18 02:06:00,46.5,43.1,30.23,WNW,284,0.0,1.0,88,0.00,,,0.00,VWS V14.01,2013-05-18 06:06:00,
2013-05-18 02:11:00,46.5,42.8,30.23,WNW,285,0.0,2.0,87,0.00,,,0.00,VWS V14.01,2013-05-18 06:11:00,
2013-05-18 02:16:00,46.5,43.1,30.23,WNW,284,1.0,2.0,88,0.00,,,0.00,VWS V14.01,2013-05-18 06:16:00,
2013-05-18 02:21:00,45.9,42.5,30.23,WNW,284,1.0,2.0,88,0.00,,,0.00,VWS V14.01,2013-05-18 06:21:00,
2013-05-18 02:26:00,45.6,42.5,30.23,WNW,285,2.0,3.0,89,0.00,,,0.00,VWS V14.01,2013-05-18 06:26:00,
2013-05-18 02:31:00,45.4,42.3,30.23,WNW,284,2.0,3.0,89,0.00,,,0.00,VWS V14.01,2013-05-18 06:31:00,
2013-05-18 02:36:00,45.1,42.1,30.23,WNW,284,2.0,3.0,89,0.00,,,0.00,VWS V14.01,2013-05-18 06:36:00,
2013-05-18 02:41:00,44.9,42.2,30.23,WNW,284,1.0,3.0,90,0.00,,,0.00,VWS V14.01,2013-05-18 06:41:00,
2013-05-18 02:46:00,44.9,42.2,30.23,WNW,284,2.0,3.0,90,0.00,,,0.00,VWS V14.01,2013-05-18 06:46:00,
2013-05-18 02:51:00,45.0,42.5,30.23,WNW,284,1.0,3.0,91,0.00,,,0.00,VWS V14.01,2013-05-18 06:51:00,
2013-05-18 02:56:00,45.1,42.6,30.23,WNW,284,0.0,3.0,91,0.00,,,0.00,VWS V14.01,2013-05-18 06:56:00,
2013-05-18 03:01:00,45.7,42.9,30.23,WNW,285,2.0,3.0,90,0.00,,,0.00,VWS V14.01,2013-05-18 07:01:00,
2013-05-18 03:06:00,45.7,42.9,30.23,WNW,284,0.0,1.0,90,0.00,,,0.00,VWS V14.01,2013-05-18 07:06:00,
2013-05-18 03:11:00,45.7,42.9,30.23,WNW,284,1.0,1.0,90,0.00,,,0.00,VWS V14.01,2013-05-18 07:11:00,
2013-05-18 03:16:00,45.7,42.9,30.23,WNW,284,1.0,2.0,90,0.00,,,0.00,VWS V14.01,2013-05-18 07:16:00,
2013-05-18 03:21:00,45.5,42.7,30.24,WNW,284,0.0,2.0,90,0.00,,,0.00,VWS V14.01,2013-05-18 07:21:00,
2013-05-18 03:26:00,45.5,42.7,30.23,WNW,284,0.0,2.0,90,0.00,,,0.00,VWS V14.01,2013-05-18 07:26:00,
2013-05-18 03:31:00,45.7,43.2,30.24,WNW,284,0.0,2.0,91,0.00,,,0.00,VWS V14.01,2013-05-18 07:31:00,
2013-05-18 03:36:00,45.7,42.9,30.24,WNW,284,0.0,2.0,90,0.00,,,0.00,VWS V14.01,2013-05-18 07:36:00,
2013-05-18 03:41:00,45.9,43.4,30.24,WNW,284,1.0,2.0,91,0.00,,,0.00,VWS V14.01,2013-05-18 07:41:00,
2013-05-18 03:46:00,46.0,43.2,30.24,WNW,284,1.0,2.0,90,0.00,,,0.00,VWS V14.01,2013-05-18 07:46:00,
2013-05-18 03:51:00,46.0,43.2,30.24,WNW,284,0.0,2.0,90,0.00,,,0.00,VWS V14.01,2013-05-18 07:51:00,
2013-05-18 03:56:00,46.0,43.2,30.24,WNW,285,0.0,2.0,90,0.00,,,0.00,VWS V14.01,2013-05-18 07:56:00,
2013-05-18 04:01:00,46.0,43.2,30.24,WNW,284,0.0,2.0,90,0.00,,,0.00,VWS V14.01,2013-05-18 08:01:00,
2013-05-18 04:06:00,45.6,42.8,30.24,WNW,284,1.0,1.0,90,0.00,,,0.00,VWS V14.01,2013-05-18 08:06:00,
2013-05-18 04:11:00,44.7,42.2,30.25,WNW,284,2.0,2.0,91,0.00,,,0.00,VWS V14.01,2013-05-18 08:11:00,
2013-05-18 04:16:00,43.7,41.0,30.25,WNW,285,0.0,2.0,90,0.00,,,0.00,VWS V14.01,2013-05-18 08:16:00,
2013-05-18 04:21:00,43.5,41.3,30.25,WNW,284,1.0,2.0,92,0.00,,,0.00,VWS V14.01,2013-05-18 08:21:00,
2013-05-18 04:26:00,43.6,41.4,30.25,WNW,284,2.0,2.0,92,0.00,,,0.00,VWS V14.01,2013-05-18 08:26:00,
2013-05-18 04:31:00,43.4,41.2,30.25,WNW,284,0.0,2.0,92,0.00,,,0.00,VWS V14.01,2013-05-18 08:31:00,
2013-05-18 04:36:00,44.2,42.3,30.25,WNW,284,0.0,0.0,93,0.00,,,0.00,VWS V14.01,2013-05-18 08:36:00,
2013-05-18 04:41:00,44.8,42.6,30.25,WNW,285,0.0,2.0,92,0.00,,,0.00,VWS V14.01,2013-05-18 08:41:00,
2013-05-18 04:46:00,44.9,42.7,30.25,WNW,284,0.0,2.0,92,0.00,,,0.00,VWS V14.01,2013-05-18 08:46:00,
2013-05-18 04:51:00,44.7,42.2,30.26,WNW,284,1.0,2.0,91,0.00,,,0.00,VWS V14.01,2013-05-18 08:51:00,
2013-05-18 04:56:00,44.2,42.0,30.26,WNW,284,0.0,2.0,92,0.00,,,0.00,VWS V14.01,2013-05-18 08:56:00,
2013-05-18 05:01:00,44.4,42.2,30.26,WNW,284,1.0,2.0,92,0.00,,,0.00,VWS V14.01,2013-05-18 09:01:00,
2013-05-18 05:06:00,45.1,42.6,30.26,WNW,284,1.0,2.0,91,0.00,,,0.00,VWS V14.01,2013-05-18 09:06:00,
2013-05-18 05:11:00,45.6,42.5,30.26,WNW,284,1.0,2.0,89,0.00,,,0.00,VWS V14.01,2013-05-18 09:11:00,
2013-05-18 05:15:00,45.9,42.5,30.26,WNW,284,0.0,2.0,88,0.00,,,0.00,VWS V14.01,2013-05-18 09:15:00,
2013-05-18 05:20:00,45.9,42.5,30.27,WNW,284,1.0,2.0,88,0.00,,,0.00,VWS V14.01,2013-05-18 09:20:00,
2013-05-18 05:25:00,45.9,42.5,30.27,WNW,284,0.0,2.0,88,0.00,,,0.00,VWS V14.01,2013-05-18 09:25:00,
2013-05-18 05:30:00,46.4,42.1,30.27,WNW,284,1.0,2.0,85,0.00,,,0.00,VWS V14.01,2013-05-18 09:30:00,
2013-05-18 05:35:00,46.3,42.3,30.27,WNW,285,1.0,2.0,86,0.00,,,0.00,VWS V14.01,2013-05-18 09:35:00,
2013-05-18 05:40:00,46.3,42.0,30.27,WNW,284,2.0,2.0,85,0.00,,,0.00,VWS V14.01,2013-05-18 09:40:00,
2013-05-18 05:45:00,46.5,42.2,30.27,WNW,284,1.0,2.0,85,0.00,,,0.00,VWS V14.01,2013-05-18 09:45:00,
2013-05-18 05:50:00,46.8,42.2,30.27,WNW,284,0.0,2.0,84,0.00,,,0.00,VWS V14.01,2013-05-18 09:50:00,
2013-05-18 05:55:00,47.0,42.4,30.28,WNW,284,2.0,3.0,84,0.00,,,0.00,VWS V14.01,2013-05-18 09:55:00,
2013-05-18 06:00:00,47.0,42.4,30.28,WNW,285,0.0,3.0,84,0.00,,,0.00,VWS V14.01,2013-05-18 10:00:00,
2013-05-18 06:05:00,46.3,42.7,30.28,WNW,284,0.0,0.0,87,0.00,,,0.00,VWS V14.01,2013-05-18 10:05:00,
2013-05-18 06:10:00,45.5,42.2,30.28,WNW,284,0.0,0.0,88,0.00,,,0.00,VWS V14.01,2013-05-18 10:10:00,
2013-05-18 06:15:00,44.9,41.9,30.28,WNW,284,0.0,0.0,89,0.00,,,0.00,VWS V14.01,2013-05-18 10:15:00,
2013-05-18 06:20:00,45.1,42.3,30.28,WNW,284,2.0,2.0,90,0.00,,,0.00,VWS V14.01,2013-05-18 10:20:00,
2013-05-18 06:25:00,46.4,43.3,30.28,WNW,284,1.0,2.0,89,0.00,,,0.00,VWS V14.01,2013-05-18 10:25:00,
2013-05-18 06:30:00,47.9,43.3,30.29,WNW,284,1.0,2.0,84,0.00,,,0.00,VWS V14.01,2013-05-18 10:30:00,
2013-05-18 06:35:00,49.5,43.3,30.29,WNW,285,0.0,0.0,79,0.00,,,0.00,VWS V14.01,2013-05-18 10:35:00,
2013-05-18 06:40:00,50.3,43.4,30.29,WNW,284,0.0,0.0,77,0.00,,,0.00,VWS V14.01,2013-05-18 10:40:00,
2013-05-18 06:45:00,50.9,43.3,30.29,WNW,284,0.0,3.0,75,0.00,,,0.00,VWS V14.01,2013-05-18 10:45:00,
2013-05-18 06:50:00,50.6,45.0,30.29,WNW,284,0.0,3.0,81,0.00,,,0.00,VWS V14.01,2013-05-18 10:50:00,
2013-05-18 06:55:00,49.6,45.0,30.29,WNW,284,0.0,3.0,84,0.00,,,0.00,VWS V14.01,2013-05-18 10:55:00,
2013-05-18 07:00:00,49.8,45.5,30.29,WNW,284,0.0,3.0,85,0.00,,,0.00,VWS V14.01,2013-05-18 11:00:00,
2013-05-18 07:05:00,50.3,46.0,30.29,WNW,284,0.0,0.0,85,0.00,,,0.00,VWS V14.01,2013-05-18 11:05:00,
2013-05-18 07:10:00,51.1,46.1,30.30,WNW,284,0.0,0.0,83,0.00,,,0.00,VWS V14.01,2013-05-18 11:10:00,
2013-05-18 07:15:00,51.9,45.9,30.30,WNW,284,0.0,2.0,80,0.00,,,0.00,VWS V14.01,2013-05-18 11:15:00,
2013-05-18 07:20:00,52.8,45.8,30.30,WNW,284,0.0,2.0,77,0.00,,,0.00,VWS V14.01,2013-05-18 11:20:00,
2013-05-18 07:25:00,53.8,46.4,30.30,WNW,284,0.0,2.0,76,0.00,,,0.00,VWS V14.01,2013-05-18 11:25:00,
2013-05-18 07:30:00,54.6,46.5,30.30,WNW,284,0.0,2.0,74,0.00,,,0.00,VWS V14.01,2013-05-18 11:30:00,
2013-05-18 07:35:00,55.3,46.8,30.30,WNW,284,0.0,0.0,73,0.00,,,0.00,VWS V14.01,2013-05-18 11:35:00,
2013-05-18 07:40:00,56.1,46.1,30.30,WNW,284,2.0,3.0,69,0.00,,,0.00,VWS V14.01,2013-05-18 11:40:00,
2013-05-18 07:45:00,57.0,45.0,30.30,WNW,284,0.0,3.0,64,0.00,,,0.00,VWS V14.01,2013-05-18 11:45:00,
2013-05-18 07:50:00,57.5,44.2,30.30,WNW,284,1.0,3.0,61,0.00,,,0.00,VWS V14.01,2013-05-18 11:50:00,
2013-05-18 07:55:00,58.1,43.0,30.30,WNW,284,2.0,4.0,57,0.00,,,0.00,VWS V14.01,2013-05-18 11:55:00,
2013-05-18 08:00:00,58.7,42.6,30.30,WNW,282,0.0,4.0,55,0.00,,,0.00,VWS V14.01,2013-05-18 12:00:00,
2013-05-18 08:05:00,58.7,42.1,30.30,West,279,0.0,3.0,54,0.00,,,0.00,VWS V14.01,2013-05-18 12:05:00,
2013-05-18 08:10:00,58.9,41.8,30.30,West,260,0.0,5.0,53,0.00,,,0.00,VWS V14.01,2013-05-18 12:10:00,
2013-05-18 08:15:00,59.6,42.5,30.31,WSW,248,0.0,5.0,53,0.00,,,0.00,VWS V14.01,2013-05-18 12:15:00,
2013-05-18 08:20:00,59.7,42.1,30.31,NW,316,2.0,5.0,52,0.00,,,0.00,VWS V14.01,2013-05-18 12:20:00,
2013-05-18 08:25:00,60.0,41.8,30.31,NW,316,0.0,5.0,51,0.00,,,0.00,VWS V14.01,2013-05-18 12:25:00,
2013-05-18 08:30:00,60.3,42.6,30.31,WNW,302,0.0,5.0,52,0.00,,,0.00,VWS V14.01,2013-05-18 12:30:00,
2013-05-18 08:35:00,60.6,41.4,30.31,West,281,0.0,0.0,49,0.00,,,0.00,VWS V14.01,2013-05-18 12:35:00,
2013-05-18 08:40:00,60.8,40.5,30.31,West,279,0.0,3.0,47,0.00,,,0.00,VWS V14.01,2013-05-18 12:40:00,
2013-05-18 08:45:00,61.1,40.7,30.32,WNW,299,4.0,5.0,47,0.00,,,0.00,VWS V14.01,2013-05-18 12:45:00,
2013-05-18 08:50:00,61.1,40.2,30.32,West,266,1.0,5.0,46,0.00,,,0.00,VWS V14.01,2013-05-18 12:50:00,
2013-05-18 08:55:00,61.7,41.3,30.32,SW,232,0.0,5.0,47,0.00,,,0.00,VWS V14.01,2013-05-18 12:55:00,
2013-05-18 09:00:00,62.0,41.0,30.32,NW,304,0.0,5.0,46,0.00,,,0.00,VWS V14.01,2013-05-18 13:00:00,
2013-05-18 09:05:00,62.2,40.0,30.32,WSW,243,1.0,1.0,44,0.00,,,0.00,VWS V14.01,2013-05-18 13:05:00,
2013-05-18 09:10:00,62.2,40.0,30.32,South,178,0.0,3.0,44,0.00,,,0.00,VWS V14.01,2013-05-18 13:10:00,
2013-05-18 09:15:00,62.1,40.0,30.32,WSW,257,1.0,5.0,44,0.00,,,0.00,VWS V14.01,2013-05-18 13:15:00,
2013-05-18 09:20:00,62.3,41.3,30.32,WSW,250,0.0,7.0,46,0.00,,,0.00,VWS V14.01,2013-05-18 13:20:00,
2013-05-18 09:25:00,62.5,40.3,30.32,WSW,252,4.0,7.0,44,0.00,,,0.00,VWS V14.01,2013-05-18 13:25:00,
2013-05-18 09:30:00,62.3,41.3,30.32,SSW,200,0.0,7.0,46,0.00,,,0.00,VWS V14.01,2013-05-18 13:30:00,
2013-05-18 09:35:00,62.7,40.5,30.32,SSW,192,0.0,0.0,44,0.00,,,0.00,VWS V14.01,2013-05-18 13:35:00,
2013-05-18 09:40:00,63.6,41.3,30.32,West,265,3.0,3.0,44,0.00,,,0.00,VWS V14.01,2013-05-18 13:40:00,
2013-05-18 09:45:00,64.0,40.5,30.32,West,271,0.0,3.0,42,0.00,,,0.00,VWS V14.01,2013-05-18 13:45:00,
2013-05-18 09:50:00,64.5,40.9,30.32,NW,308,1.0,4.0,42,0.00,,,0.00,VWS V14.01,2013-05-18 13:50:00,
2013-05-18 09:55:00,64.3,39.5,30.31,NNE,17,4.0,6.0,40,0.00,,,0.00,VWS V14.01,2013-05-18 13:55:00,
2013-05-18 10:00:00,64.6,42.8,30.32,WNW,287,1.0,6.0,45,0.00,,,0.00,VWS V14.01,2013-05-18 14:00:00,
2013-05-18 10:05:00,64.5,39.7,30.32,NW,309,4.0,5.0,40,0.00,,,0.00,VWS V14.01,2013-05-18 14:05:00,
2013-05-18 10:10:00,64.2,41.3,30.31,West,263,4.0,5.0,43,0.00,,,0.00,VWS V14.01,2013-05-18 14:10:00,
2013-05-18 10:15:00,65.0,42.6,30.32,WSW,255,0.0,7.0,44,0.00,,,0.00,VWS V14.01,2013-05-18 14:15:00,
2013-05-18 10:20:00,65.6,39.3,30.31,NW,306,1.0,7.0,38,0.00,,,0.00,VWS V14.01,2013-05-18 14:20:00,
2013-05-18 10:25:00,66.2,39.9,30.31,WNW,286,2.0,7.0,38,0.00,,,0.00,VWS V14.01,2013-05-18 14:25:00,
2013-05-18 10:30:00,66.1,43.0,30.31,NW,304,0.0,7.0,43,0.00,,,0.00,VWS V14.01,2013-05-18 14:30:00,
2013-05-18 10:35:00,66.2,39.9,30.31,South,172,2.0,2.0,38,0.00,,,0.00,VWS V14.01,2013-05-18 14:35:00,
2013-05-18 10:40:00,66.5,37.3,30.32,WSW,253,3.0,7.0,34,0.00,,,0.00,VWS V14.01,2013-05-18 14:40:00,
2013-05-18 10:45:00,66.2,37.0,30.32,NNW,334,1.0,7.0,34,0.00,,,0.00,VWS V14.01,2013-05-18 14:45:00,
2013-05-18 10:50:00,66.2,36.3,30.31,West,269,3.0,8.0,33,0.00,,,0.00,VWS V14.01,2013-05-18 14:50:00,
2013-05-18 10:55:00,66.7,37.5,30.31,WSW,244,3.0,8.0,34,0.00,,,0.00,VWS V14.01,2013-05-18 14:55:00,
2013-05-18 11:00:00,67.4,37.3,30.31,West,281,2.0,8.0,33,0.00,,,0.00,VWS V14.01,2013-05-18 15:00:00,
2013-05-18 11:05:00,66.7,35.1,30.31,WSW,257,6.0,6.0,31,0.00,,,0.00,VWS V14.01,2013-05-18 15:05:00,
2013-05-18 11:10:00,67.3,36.5,30.31,WNW,296,1.0,10.0,32,0.00,,,0.00,VWS V14.01,2013-05-18 15:10:00,
2013-05-18 11:15:00,67.1,38.6,30.31,WSW,254,2.0,10.0,35,0.00,,,0.00,VWS V14.01,2013-05-18 15:15:00,
2013-05-18 11:20:00,67.1,37.1,30.31,WNW,294,4.0,10.0,33,0.00,,,0.00,VWS V14.01,2013-05-18 15:20:00,
2013-05-18 11:25:00,67.1,37.8,30.31,West,260,1.0,10.0,34,0.00,,,0.00,VWS V14.01,2013-05-18 15:25:00,
2013-05-18 11:30:00,67.4,39.5,30.31,SW,233,3.0,10.0,36,0.00,,,0.00,VWS V14.01,2013-05-18 15:30:00,
2013-05-18 11:35:00,68.1,38.7,30.30,NW,316,1.0,2.0,34,0.00,,,0.00,VWS V14.01,2013-05-18 15:35:00,
2013-05-18 11:40:00,68.4,42.5,30.30,SSW,200,2.0,5.0,39,0.00,,,0.00,VWS V14.01,2013-05-18 15:40:00,
2013-05-18 11:45:00,67.5,39.6,30.30,WNW,285,4.0,9.0,36,0.00,,,0.00,VWS V14.01,2013-05-18 15:45:00,
2013-05-18 11:50:00,66.9,38.4,30.30,South,178,2.0,9.0,35,0.00,,,0.00,VWS V14.01,2013-05-18 15:50:00,
2013-05-18 11:55:00,65.9,38.9,30.30,SSE,164,0.0,9.0,37,0.00,,,0.00,VWS V14.01,2013-05-18 15:55:00,
2013-05-18 12:00:00,67.1,38.6,30.30,NNW,327,1.0,9.0,35,0.00,,,0.00,VWS V14.01,2013-05-18 16:00:00,
2013-05-18 12:05:00,67.5,40.3,30.30,NNW,331,0.0,3.0,37,0.00,,,0.00,VWS V14.01,2013-05-18 16:05:00,
2013-05-18 12:10:00,67.0,39.9,30.29,WNW,296,2.0,3.0,37,0.00,,,0.00,VWS V14.01,2013-05-18 16:10:00,
2013-05-18 12:15:00,67.6,37.5,30.29,WSW,245,2.0,5.0,33,0.00,,,0.00,VWS V14.01,2013-05-18 16:15:00,
2013-05-18 12:20:00,67.0,36.2,30.29,WNW,303,2.0,6.0,32,0.00,,,0.00,VWS V14.01,2013-05-18 16:20:00,
2013-05-18 12:25:00,66.6,40.9,30.29,West,264,0.0,9.0,39,0.00,,,0.00,VWS V14.01,2013-05-18 16:25:00,
2013-05-18 12:30:00,67.4,38.1,30.29,West,270,4.0,9.0,34,0.00,,,0.00,VWS V14.01,2013-05-18 16:30:00,
2013-05-18 12:35:00,67.5,38.9,30.29,NW,310,9.0,9.0,35,0.00,,,0.00,VWS V14.01,2013-05-18 16:35:00,
2013-05-18 12:40:00,67.8,39.2,30.29,West,267,2.0,9.0,35,0.00,,,0.00,VWS V14.01,2013-05-18 16:40:00,
2013-05-18 12:45:00,68.5,39.0,30.29,SW,232,5.0,9.0,34,0.00,,,0.00,VWS V14.01,2013-05-18 16:45:00,
2013-05-18 12:50:00,69.1,38.8,30.28,NW,322,5.0,12.0,33,0.00,,,0.00,VWS V14.01,2013-05-18 16:50:00,
2013-05-18 12:55:00,69.6,38.5,30.28,WNW,296,4.0,12.0,32,0.00,,,0.00,VWS V14.01,2013-05-18 16:55:00,
2013-05-18 13:00:00,69.3,39.0,30.28,NW,313,2.0,12.0,33,0.00,,,0.00,VWS V14.01,2013-05-18 17:00:00,
2013-05-18 13:05:00,69.1,39.6,30.28,West,276,1.0,2.0,34,0.00,,,0.00,VWS V14.01,2013-05-18 17:05:00,
2013-05-18 13:10:00,69.2,38.1,30.28,NNW,327,0.0,8.0,32,0.00,,,0.00,VWS V14.01,2013-05-18 17:10:00,
2013-05-18 13:15:00,68.5,39.0,30.27,NNW,346,3.0,8.0,34,0.00,,,0.00,VWS V14.01,2013-05-18 17:15:00,
2013-05-18 13:20:00,68.8,39.3,30.28,WSW,257,1.0,8.0,34,0.00,,,0.00,VWS V14.01,2013-05-18 17:20:00,
2013-05-18 13:25:00,68.4,38.2,30.27,North,351,3.0,8.0,33,0.00,,,0.00,VWS V14.01,2013-05-18 17:25:00,
2013-05-18 13:30:00,68.9,38.6,30.27,NW,323,4.0,11.0,33,0.00,,,0.00,VWS V14.01,2013-05-18 17:30:00,
2013-05-18 13:35:00,69.5,42.1,30.27,NNW,347,3.0,3.0,37,0.00,,,0.00,VWS V14.01,2013-05-18 17:35:00,
2013-05-18 13:40:00,69.7,40.1,30.27,NNE,27,2.0,6.0,34,0.00,,,0.00,VWS V14.01,2013-05-18 17:40:00,
2013-05-18 13:45:00,68.6,39.1,30.27,NNE,15,3.0,8.0,34,0.00,,,0.00,VWS V14.01,2013-05-18 17:45:00,
2013-05-18 13:50:00,67.8,40.6,30.27,North,360,0.0,8.0,37,0.00,,,0.00,VWS V14.01,2013-05-18 17:50:00,
2013-05-18 13:55:00,69.2,41.8,30.27,West,270,0.0,8.0,37,0.00,,,0.00,VWS V14.01,2013-05-18 17:55:00,
2013-05-18 14:00:00,70.2,38.2,30.27,NE,49,3.0,8.0,31,0.00,,,0.00,VWS V14.01,2013-05-18 18:00:00,
2013-05-18 14:05:00,70.0,39.6,30.27,NW,319,3.0,3.0,33,0.00,,,0.00,VWS V14.01,2013-05-18 18:05:00,
2013-05-18 14:10:00,69.8,40.9,30.27,South,170,1.0,7.0,35,0.00,,,0.00,VWS V14.01,2013-05-18 18:10:00,
2013-05-18 14:15:00,70.3,38.3,30.27,WNW,292,6.0,8.0,31,0.00,,,0.00,VWS V14.01,2013-05-18 18:15:00,
2013-05-18 14:20:00,69.3,40.5,30.26,SSW,205,0.0,8.0,35,0.00,,,0.00,VWS V14.01,2013-05-18 18:20:00,
2013-05-18 14:25:00,69.9,39.5,30.26,NE,38,0.0,8.0,33,0.00,,,0.00,VWS V14.01,2013-05-18 18:25:00,
2013-05-18 14:30:00,70.1,37.3,30.26,WNW,282,0.0,8.0,30,0.00,,,0.00,VWS V14.01,2013-05-18 18:30:00,
2013-05-18 14:35:00,69.1,38.8,30.26,NNE,14,0.0,1.0,33,0.00,,,0.00,VWS V14.01,2013-05-18 18:35:00,
2013-05-18 14:40:00,69.2,39.7,30.26,WNW,293,4.0,9.0,34,0.00,,,0.00,VWS V14.01,2013-05-18 18:40:00,
2013-05-18 14:45:00,69.6,36.8,30.26,NNW,331,1.0,9.0,30,0.00,,,0.00,VWS V14.01,2013-05-18 18:45:00,
2013-05-18 14:50:00,70.2,37.3,30.26,NNW,339,2.0,9.0,30,0.00,,,0.00,VWS V14.01,2013-05-18 18:50:00,
2013-05-18 14:55:00,71.0,42.7,30.25,NNW,338,2.0,9.0,36,0.00,,,0.00,VWS V14.01,2013-05-18 18:55:00,
2013-05-18 15:00:00,71.0,43.4,30.25,West,264,1.0,9.0,37,0.00,,,0.00,VWS V14.01,2013-05-18 19:00:00,
2013-05-18 15:05:00,69.8,38.6,30.25,SSE,161,2.0,2.0,32,0.00,,,0.00,VWS V14.01,2013-05-18 19:05:00,
2013-05-18 15:10:00,69.5,39.2,30.25,NNW,331,1.0,3.0,33,0.00,,,0.00,VWS V14.01,2013-05-18 19:10:00,
2013-05-18 15:15:00,69.5,40.7,30.25,WSW,248,2.0,4.0,35,0.00,,,0.00,VWS V14.01,2013-05-18 19:15:00,
2013-05-18 15:20:00,69.4,38.3,30.25,NNW,345,2.0,6.0,32,0.00,,,0.00,VWS V14.01,2013-05-18 19:20:00,
2013-05-18 15:25:00,69.2,39.7,30.25,NW,319,1.0,6.0,34,0.00,,,0.00,VWS V14.01,2013-05-18 19:25:00,
2013-05-18 15:30:00,69.0,38.7,30.25,SSW,203,0.0,6.0,33,0.00,,,0.00,VWS V14.01,2013-05-18 19:30:00,
2013-05-18 15:35:00,69.8,41.7,30.25,West,273,1.0,1.0,36,0.00,,,0.00,VWS V14.01,2013-05-18 19:35:00,
2013-05-18 15:40:00,69.4,39.1,30.25,SSW,201,2.0,4.0,33,0.00,,,0.00,VWS V14.01,2013-05-18 19:40:00,
2013-05-18 15:45:00,69.5,41.4,30.25,WNW,286,2.0,4.0,36,0.00,,,0.00,VWS V14.01,2013-05-18 19:45:00,
2013-05-18 15:50:00,69.7,39.3,30.25,West,271,5.0,5.0,33,0.00,,,0.00,VWS V14.01,2013-05-18 19:50:00,
2013-05-18 15:55:00,69.6,42.2,30.25,WSW,239,1.0,5.0,37,0.00,,,0.00,VWS V14.01,2013-05-18 19:55:00,
2013-05-18 16:00:00,69.7,38.5,30.25,West,266,5.0,7.0,32,0.00,,,0.00,VWS V14.01,2013-05-18 20:00:00,
2013-05-18 16:05:00,69.5,38.4,30.25,SW,233,0.0,0.0,32,0.00,,,0.00,VWS V14.01,2013-05-18 20:05:00,
2013-05-18 16:10:00,69.4,38.3,30.25,West,262,3.0,6.0,32,0.00,,,0.00,VWS V14.01,2013-05-18 20:10:00,
2013-05-18 16:15:00,69.3,40.5,30.25,WSW,246,4.0,7.0,35,0.00,,,0.00,VWS V14.01,2013-05-18 20:15:00,
2013-05-18 16:20:00,69.3,38.2,30.25,West,263,2.0,7.0,32,0.00,,,0.00,VWS V14.01,2013-05-18 20:20:00,
2013-05-18 16:25:00,69.4,39.8,30.25,WNW,294,0.0,7.0,34,0.00,,,0.00,VWS V14.01,2013-05-18 20:25:00,
2013-05-18 16:30:00,68.4,41.8,30.25,NNW,329,0.0,7.0,38,0.00,,,0.00,VWS V14.01,2013-05-18 20:30:00,
2013-05-18 16:35:00,68.1,41.6,30.25,North,5,1.0,1.0,38,0.00,,,0.00,VWS V14.01,2013-05-18 20:35:00,
2013-05-18 16:40:00,68.5,41.2,30.25,West,265,4.0,4.0,37,0.00,,,0.00,VWS V14.01,2013-05-18 20:40:00,
2013-05-18 16:45:00,69.3,38.2,30.25,West,260,0.0,4.0,32,0.00,,,0.00,VWS V14.01,2013-05-18 20:45:00,
2013-05-18 16:50:00,69.0,41.0,30.25,SW,217,1.0,4.0,36,0.00,,,0.00,VWS V14.01,2013-05-18 20:50:00,
2013-05-18 16:55:00,68.4,41.8,30.24,South,188,1.0,4.0,38,0.00,,,0.00,VWS V14.01,2013-05-18 20:55:00,
2013-05-18 17:00:00,67.9,41.4,30.24,SSE,155,0.0,4.0,38,0.00,,,0.00,VWS V14.01,2013-05-18 21:00:00,
2013-05-18 17:05:00,67.8,42.0,30.25,SW,223,0.0,0.0,39,0.00,,,0.00,VWS V14.01,2013-05-18 21:05:00,
2013-05-18 17:10:00,67.6,41.1,30.25,WSW,238,0.0,2.0,38,0.00,,,0.00,VWS V14.01,2013-05-18 21:10:00,
2013-05-18 17:15:00,67.5,42.3,30.24,East,100,0.0,2.0,40,0.00,,,0.00,VWS V14.01,2013-05-18 21:15:00,
2013-05-18 17:20:00,67.4,40.9,30.24,South,178,2.0,5.0,38,0.00,,,0.00,VWS V14.01,2013-05-18 21:20:00,
2013-05-18 17:25:00,68.1,41.6,30.24,South,178,1.0,5.0,38,0.00,,,0.00,VWS V14.01,2013-05-18 21:25:00,
2013-05-18 17:29:00,67.9,42.1,30.24,South,181,5.0,5.0,39,0.00,,,0.00,VWS V14.01,2013-05-18 21:29:00,
2013-05-18 17:34:00,67.8,43.3,30.24,South,176,2.0,2.0,41,0.00,,,0.00,VWS V14.01,2013-05-18 21:34:00,
2013-05-18 17:39:00,67.6,44.3,30.24,SSE,167,1.0,3.0,43,0.00,,,0.00,VWS V14.01,2013-05-18 21:39:00,
2013-05-18 17:44:00,67.5,44.2,30.24,WNW,302,2.0,4.0,43,0.00,,,0.00,VWS V14.01,2013-05-18 21:44:00,
2013-05-18 17:49:00,67.5,43.6,30.24,NW,314,2.0,7.0,42,0.00,,,0.00,VWS V14.01,2013-05-18 21:49:00,
2013-05-18 17:54:00,67.5,44.2,30.24,NNE,26,1.0,7.0,43,0.00,,,0.00,VWS V14.01,2013-05-18 21:54:00,
2013-05-18 17:59:00,67.6,43.7,30.24,SSW,203,0.0,7.0,42,0.00,,,0.00,VWS V14.01,2013-05-18 21:59:00,
2013-05-18 18:04:00,67.1,43.3,30.24,NNW,336,6.0,6.0,42,0.00,,,0.00,VWS V14.01,2013-05-18 22:04:00,
2013-05-18 18:09:00,66.7,42.3,30.24,SSE,167,0.0,7.0,41,0.00,,,0.00,VWS V14.01,2013-05-18 22:09:00,
2013-05-18 18:14:00,66.3,43.2,30.24,South,178,0.0,7.0,43,0.00,,,0.00,VWS V14.01,2013-05-18 22:14:00,
2013-05-18 18:19:00,66.1,43.6,30.24,NW,305,3.0,7.0,44,0.00,,,0.00,VWS V14.01,2013-05-18 22:19:00,
2013-05-18 18:24:00,65.9,42.8,30.24,WSW,254,1.0,7.0,43,0.00,,,0.00,VWS V14.01,2013-05-18 22:24:00,
2013-05-18 18:29:00,65.8,43.3,30.24,WNW,296,6.0,7.0,44,0.00,,,0.00,VWS V14.01,2013-05-18 22:29:00,
2013-05-18 18:34:00,65.6,44.3,30.24,West,261,11.0,11.0,46,0.00,,,0.00,VWS V14.01,2013-05-18 22:34:00,
2013-05-18 18:39:00,65.3,44.6,30.24,South,180,6.0,11.0,47,0.00,,,0.00,VWS V14.01,2013-05-18 22:39:00,
2013-05-18 18:44:00,65.0,44.8,30.24,SSE,148,1.0,11.0,48,0.00,,,0.00,VWS V14.01,2013-05-18 22:44:00,
2013-05-18 18:49:00,64.8,45.2,30.25,West,271,1.0,11.0,49,0.00,,,0.00,VWS V14.01,2013-05-18 22:49:00,
2013-05-18 18:54:00,64.7,45.7,30.25,NNW,347,4.0,11.0,50,0.00,,,0.00,VWS V14.01,2013-05-18 22:54:00,
2013-05-18 18:59:00,64.4,46.4,30.25,West,270,1.0,11.0,52,0.00,,,0.00,VWS V14.01,2013-05-18 22:59:00,
2013-05-18 19:04:00,64.0,46.5,30.25,NW,317,3.0,3.0,53,0.00,,,0.00,VWS V14.01,2013-05-18 23:04:00,
2013-05-18 19:09:00,63.7,46.8,30.25,East,100,2.0,9.0,54,0.00,,,0.00,VWS V14.01,2013-05-18 23:09:00,
2013-05-18 19:14:00,63.3,46.9,30.26,WSW,245,1.0,9.0,55,0.00,,,0.00,VWS V14.01,2013-05-18 23:14:00,
2013-05-18 19:19:00,63.1,46.7,30.26,West,281,4.0,9.0,55,0.00,,,0.00,VWS V14.01,2013-05-18 23:19:00,
2013-05-18 19:24:00,62.8,46.9,30.26,NW,313,0.0,9.0,56,0.00,,,0.00,VWS V14.01,2013-05-18 23:24:00,
2013-05-18 19:29:00,62.6,46.2,30.26,West,274,0.0,9.0,55,0.00,,,0.00,VWS V14.01,2013-05-18 23:29:00,
2013-05-18 19:34:00,62.4,46.5,30.26,NW,318,0.0,1.0,56,0.00,,,0.00,VWS V14.01,2013-05-18 23:34:00,
2013-05-18 19:39:00,62.1,46.2,30.26,SSW,207,3.0,8.0,56,0.00,,,0.00,VWS V14.01,2013-05-18 23:39:00,
2013-05-18 19:44:00,61.8,46.4,30.27,WNW,300,1.0,8.0,57,0.00,,,0.00,VWS V14.01,2013-05-18 23:44:00,
2013-05-18 19:49:00,61.6,46.2,30.27,WSW,240,2.0,8.0,57,0.00,,,0.00,VWS V14.01,2013-05-18 23:49:00,
2013-05-18 19:54:00,61.3,46.9,30.27,South,185,3.0,8.0,59,0.00,,,0.00,VWS V14.01,2013-05-18 23:54:00,
2013-05-18 19:59:00,61.1,46.2,30.27,West,261,5.0,8.0,58,0.00,,,0.00,VWS V14.01,2013-05-18 23:59:00,
2013-05-18 20:04:00,60.9,46.0,30.27,WNW,291,3.0,3.0,58,0.00,,,0.00,VWS V14.01,2013-05-19 00:04:00,
2013-05-18 20:09:00,60.5,46.1,30.27,West,262,1.0,3.0,59,0.00,,,0.00,VWS V14.01,2013-05-19 00:09:00,
2013-05-18 20:14:00,60.2,45.4,30.27,West,267,4.0,7.0,58,0.00,,,0.00,VWS V14.01,2013-05-19 00:14:00,
2013-05-18 20:19:00,60.0,45.2,30.27,WSW,256,1.0,7.0,58,0.00,,,0.00,VWS V14.01,2013-05-19 00:19:00,
2013-05-18 20:24:00,59.9,45.1,30.27,South,189,1.0,7.0,58,0.00,,,0.00,VWS V14.01,2013-05-19 00:24:00,
2013-05-18 20:29:00,59.6,45.3,30.27,SSW,211,2.0,7.0,59,0.00,,,0.00,VWS V14.01,2013-05-19 00:29:00,
2013-05-18 20:34:00,59.4,45.5,30.27,WSW,253,5.0,8.0,60,0.00,,,0.00,VWS V14.01,2013-05-19 00:34:00,
2013-05-18 20:39:00,59.3,45.0,30.27,SSW,198,0.0,10.0,59,0.00,,,0.00,VWS V14.01,2013-05-19 00:39:00,
2013-05-18 20:44:00,59.1,45.2,30.27,WSW,253,1.0,10.0,60,0.00,,,0.00,VWS V14.01,2013-05-19 00:44:00,
2013-05-18 20:49:00,59.0,45.6,30.28,SSW,205,0.0,10.0,61,0.00,,,0.00,VWS V14.01,2013-05-19 00:49:00,
2013-05-18 20:54:00,58.8,45.8,30.28,West,270,0.0,10.0,62,0.00,,,0.00,VWS V14.01,2013-05-19 00:54:00,
2013-05-18 20:59:00,58.6,45.6,30.28,NW,317,2.0,10.0,62,0.00,,,0.00,VWS V14.01,2013-05-19 00:59:00,
2013-05-18 21:04:00,58.5,46.0,30.28,SSW,195,2.0,10.0,63,0.00,,,0.00,VWS V14.01,2013-05-19 01:04:00,
2013-05-18 21:09:00,58.3,46.2,30.28,West,261,0.0,5.0,64,0.00,,,0.00,VWS V14.01,2013-05-19 01:09:00,
2013-05-18 21:14:00,58.0,46.3,30.28,West,271,3.0,5.0,65,0.00,,,0.00,VWS V14.01,2013-05-19 01:14:00,
2013-05-18 21:19:00,57.9,46.2,30.29,North,351,1.0,6.0,65,0.00,,,0.00,VWS V14.01,2013-05-19 01:19:00,
2013-05-18 21:24:00,57.6,46.3,30.29,West,279,0.0,6.0,66,0.00,,,0.00,VWS V14.01,2013-05-19 01:24:00,
2013-05-18 21:29:00,57.4,46.5,30.29,WNW,283,1.0,6.0,67,0.00,,,0.00,VWS V14.01,2013-05-19 01:29:00,
2013-05-18 21:34:00,57.1,46.7,30.29,West,259,3.0,7.0,68,0.00,,,0.00,VWS V14.01,2013-05-19 01:34:00,
2013-05-18 21:39:00,56.9,46.5,30.29,West,268,3.0,5.0,68,0.00,,,0.00,VWS V14.01,2013-05-19 01:39:00,
2013-05-18 21:44:00,56.8,46.8,30.29,WNW,302,5.0,10.0,69,0.00,,,0.00,VWS V14.01,2013-05-19 01:44:00,
2013-05-18 21:49:00,56.7,46.7,30.29,West,277,3.0,10.0,69,0.00,,,0.00,VWS V14.01,2013-05-19 01:49:00,
2013-05-18 21:54:00,56.7,47.0,30.29,WNW,282,6.0,10.0,70,0.00,,,0.00,VWS V14.01,2013-05-19 01:54:00,
2013-05-18 21:59:00,56.4,46.8,30.29,SW,227,4.0,10.0,70,0.00,,,0.00,VWS V14.01,2013-05-19 01:59:00,
2013-05-18 22:04:00,56.3,47.0,30.29,WNW,288,3.0,10.0,71,0.00,,,0.00,VWS V14.01,2013-05-19 02:04:00,
2013-05-18 22:09:00,56.2,46.9,30.29,NNW,331,1.0,6.0,71,0.00,,,0.00,VWS V14.01,2013-05-19 02:09:00,
2013-05-18 22:14:00,56.1,46.8,30.28,WSW,244,5.0,13.0,71,0.00,,,0.00,VWS V14.01,2013-05-19 02:14:00,
2013-05-18 22:19:00,56.0,46.7,30.29,NW,308,3.0,13.0,71,0.00,,,0.00,VWS V14.01,2013-05-19 02:19:00,
2013-05-18 22:24:00,55.9,47.0,30.29,SSW,201,6.0,13.0,72,0.00,,,0.00,VWS V14.01,2013-05-19 02:24:00,
2013-05-18 22:29:00,55.9,47.0,30.29,West,274,1.0,13.0,72,0.00,,,0.00,VWS V14.01,2013-05-19 02:29:00,
2013-05-18 22:34:00,55.7,46.8,30.28,NW,325,5.0,13.0,72,0.00,,,0.00,VWS V14.01,2013-05-19 02:34:00,
2013-05-18 22:39:00,55.7,46.8,30.28,WSW,254,4.0,13.0,72,0.00,,,0.00,VWS V14.01,2013-05-19 02:39:00,
2013-05-18 22:44:00,55.6,46.7,30.28,NNW,339,3.0,13.0,72,0.00,,,0.00,VWS V14.01,2013-05-19 02:44:00,
2013-05-18 22:49:00,55.5,46.6,30.28,North,355,5.0,13.0,72,0.00,,,0.00,VWS V14.01,2013-05-19 02:49:00,
2013-05-18 22:54:00,55.4,46.5,30.28,WNW,289,3.0,13.0,72,0.00,,,0.00,VWS V14.01,2013-05-19 02:54:00,
2013-05-18 22:59:00,55.3,46.4,30.28,WNW,291,5.0,13.0,72,0.00,,,0.00,VWS V14.01,2013-05-19 02:59:00,
2013-05-18 23:04:00,55.3,46.8,30.28,NW,307,7.0,13.0,73,0.00,,,0.00,VWS V14.01,2013-05-19 03:04:00,
2013-05-18 23:09:00,55.1,46.6,30.28,West,261,7.0,10.0,73,0.00,,,0.00,VWS V14.01,2013-05-19 03:09:00,
2013-05-18 23:14:00,54.9,46.4,30.28,SW,228,5.0,14.0,73,0.00,,,0.00,VWS V14.01,2013-05-19 03:14:00,
2013-05-18 23:19:00,54.7,46.6,30.28,WSW,245,5.0,14.0,74,0.00,,,0.00,VWS V14.01,2013-05-19 03:19:00,
2013-05-18 23:24:00,54.6,46.5,30.29,WSW,248,3.0,14.0,74,0.00,,,0.00,VWS V14.01,2013-05-19 03:24:00,
2013-05-18 23:29:00,54.5,46.4,30.28,WSW,252,4.0,14.0,74,0.00,,,0.00,VWS V14.01,2013-05-19 03:29:00,
2013-05-18 23:34:00,54.3,46.6,30.28,West,268,0.0,14.0,75,0.00,,,0.00,VWS V14.01,2013-05-19 03:34:00,
2013-05-18 23:39:00,54.0,46.3,30.28,West,271,6.0,6.0,75,0.00,,,0.00,VWS V14.01,2013-05-19 03:39:00,
2013-05-18 23:44:00,53.9,46.2,30.29,West,274,7.0,8.0,75,0.00,,,0.00,VWS V14.01,2013-05-19 03:44:00,
2013-05-18 23:49:00,53.7,46.0,30.29,SW,223,2.0,8.0,75,0.00,,,0.00,VWS V14.01,2013-05-19 03:49:00,
2013-05-18 23:54:00,53.7,46.0,30.29,West,279,3.0,8.0,75,0.00,,,0.00,VWS V14.01,2013-05-19 03:54:00,
2013-05-18 23:59:00,53.6,45.9,30.29,WSW,250,1.0,8.0,75,0.00,,,0.00,VWS V14.01,2013-05-19 03:59:00,